STARLINK-31273, 58846

Orbit data source: Space-Track

STARLINK-31273, 58846 is a payload satellite owned by SpaceX/Seattle (US) in LEO that was launched on Wed, 24 Jan 2024 UTC via an FALCON 9 launch vehicle from the Air Force Western Test Range (AFWTR). Payload-class satellites include a variety of spacecraft equipped with specific instruments for various scientific and technological missions. These include communications satellites like Starlink; space stations such as the ISS; scientific satellites like the Hubble; Earth observation satellites from companies like Planet Labs, Umbra, and HawkEye 360; GPS; miniature CubeSats for education and research; and military/defense satellites.

Loading next visibility...
Identifier
58846, 2024-017W
Orbit
LEO
Country
Flag of USUS
Related business
Manufacturer
SpaceX/Seattle
Mission
Operational Commercial Communications
Bus & Motor
STARLINK V2M, Unknown motor
Mass
730 kg wet, ~700 kg dry
Launch date (UTC)
2024-01-24 (2 years ago)
Launch vehicle
FALCON 9
Launch site
Air Force Western Test Range (AFWTR)
Object type
Payload
Rocket body
Debris
Shape & HBR
Box + 2 Pan, 17.7 m
Radar Cross Section
33.884 m², Large (>1 m²)

Expand to show TLE details & history
Last TLE update: 2 days ago

TLE from 2 days ago
0 STARLINK-31273
1 58846U 24017W   26171.17003922 -.00000023  00000-0  11339-4 0  9993
2 58846  53.1604  88.5048 0001190  84.4377 275.6759 15.30182091135740
Epoch: 2026-06-20T04:04Z
TLE epoch observation values (Epoch: 2026-06-20T04:04:51.388Z)
Latitude
-0.00006°
Longitude
118.90212°
Altitude
476.088 km
Speed
7.629 km/s
True Right ascension
05h 54m 01s
True Declination
0° 00' 00"
Sunlit
Object was in daylight at epoch
Visualization orbit readout
Latitude
Unknown
Longitude
Unknown
Altitude
Unknown
Speed
Unknown
Apparent Right ascension
Unknown
Apparent Declination
Unknown
Sunlit
N/A
Visualization observer readout
Local Sidereal Time
21:26:33
Azimuth
Unknown
Elevation
Unknown
Doppler factor
Unknown
Orbital elements
Apogee altitude
476.34 km
Perigee altitude
474.709 km
Semi-major axis
6,853.662 km
Eccentricity
0.00012
Inclination
53.1604°
RAAN
88.5048°
Arg. of periapsis
84.4377°
True anomaly
275.66233°
Mean anomaly
275.6759°
Eccentric anomaly
275.66912°
Mean motion
3.82524 °/min
Orbital period
94.11 mins
BSTAR
0.000011339
Loading maneuver chart data...
Computing Atmospheric mass density...
Loading historical data...
Loading historical data...
Loading historical data...
Loading historical data...
Loading historical data...
Loading historical data...
Loading historical data...

Documentation

Showing up to 5 results
|